Time,TemperatureF,DewpointF,PressureIn,WindDirection,WindDirectionDegrees,WindSpeedMPH,WindSpeedGustMPH,Humidity,HourlyPrecipIn,Conditions,Clouds,dailyrainin,SoftwareType,DateUTC
2013-01-11 00:05:00,51.1,41.1,29.99,SE,135,0.0,0.0,60,0.00,,,0.00,fowsr,2013-01-11 05:05:00,
2013-01-11 00:10:00,51.1,40.4,29.99,South,180,0.0,0.0,58,0.00,,,0.00,fowsr,2013-01-11 05:10:00,
2013-01-11 00:15:00,51.1,40.4,29.99,North,0,0.0,0.7,58,0.00,,,0.00,fowsr,2013-01-11 05:15:00,
2013-01-11 00:20:00,51.1,40.4,29.99,East,90,0.0,0.0,58,0.00,,,0.00,fowsr,2013-01-11 05:20:00,
2013-01-11 00:25:00,50.9,40.3,29.99,East,90,0.0,0.7,58,0.00,,,0.00,fowsr,2013-01-11 05:25:00,
2013-01-11 00:30:00,50.9,39.9,29.99,East,90,0.0,0.7,57,0.00,,,0.00,fowsr,2013-01-11 05:30:00,
2013-01-11 00:35:00,50.7,40.1,29.99,NNW,337,0.0,0.7,58,0.00,,,0.00,fowsr,2013-01-11 05:35:00,
2013-01-11 00:40:00,50.7,39.8,29.98,East,90,0.0,0.0,57,0.00,,,0.00,fowsr,2013-01-11 05:40:00,
2013-01-11 00:45:00,50.5,39.6,29.98,NE,45,0.0,0.0,57,0.00,,,0.00,fowsr,2013-01-11 05:45:00,
2013-01-11 00:50:00,50.5,39.6,29.97,North,0,0.0,0.7,57,0.00,,,0.00,fowsr,2013-01-11 05:50:00,
2013-01-11 00:55:00,50.5,39.3,29.96,East,90,0.0,0.7,56,0.00,,,0.00,fowsr,2013-01-11 05:55:00,
2013-01-11 01:00:00,50.5,38.9,29.96,NW,315,0.0,0.7,55,0.00,,,0.00,fowsr,2013-01-11 06:00:00,
2013-01-11 01:05:00,50.5,38.9,29.96,NW,315,0.0,0.7,55,0.00,,,0.00,fowsr,2013-01-11 06:05:00,
2013-01-11 01:10:00,50.5,38.9,29.95,NW,315,0.0,0.7,55,0.00,,,0.00,fowsr,2013-01-11 06:10:00,
2013-01-11 01:20:00,50.4,38.8,29.95,East,90,0.0,2.2,55,0.00,,,0.00,fowsr,2013-01-11 06:20:00,
2013-01-11 01:25:00,50.4,38.4,29.95,East,90,0.0,0.0,54,0.00,,,0.00,fowsr,2013-01-11 06:25:00,
2013-01-11 01:30:00,50.4,38.4,29.95,East,90,0.0,0.0,54,0.00,,,0.00,fowsr,2013-01-11 06:30:00,
2013-01-11 01:35:00,50.4,38.4,29.95,SE,135,0.0,0.7,54,0.00,,,0.00,fowsr,2013-01-11 06:35:00,
2013-01-11 01:40:00,50.4,38.4,29.95,East,90,0.0,0.0,54,0.00,,,0.00,fowsr,2013-01-11 06:40:00,
2013-01-11 01:45:00,50.4,38.4,29.95,SE,135,0.0,0.0,54,0.00,,,0.00,fowsr,2013-01-11 06:45:00,
2013-01-11 01:50:00,50.4,38.4,29.95,South,180,0.0,0.0,54,0.00,,,0.00,fowsr,2013-01-11 06:50:00,
2013-01-11 02:00:00,50.5,38.6,29.95,East,90,0.0,0.0,54,0.00,,,0.00,fowsr,2013-01-11 07:00:00,
2013-01-11 02:10:00,50.5,38.6,29.95,SE,135,0.0,0.7,54,0.00,,,0.00,fowsr,2013-01-11 07:10:00,
2013-01-11 02:15:00,50.5,38.6,29.95,SE,135,0.0,0.7,54,0.00,,,0.00,fowsr,2013-01-11 07:15:00,
2013-01-11 02:25:00,50.5,38.2,29.94,SE,135,0.0,0.7,53,0.00,,,0.00,fowsr,2013-01-11 07:25:00,
2013-01-11 02:30:00,50.5,38.2,29.95,SE,135,0.0,0.0,53,0.00,,,0.00,fowsr,2013-01-11 07:30:00,
2013-01-11 02:35:00,50.4,38.4,29.95,NE,45,0.7,1.6,54,0.00,,,0.00,fowsr,2013-01-11 07:35:00,
2013-01-11 02:40:00,50.4,38.8,29.95,East,90,0.0,0.0,55,0.00,,,0.00,fowsr,2013-01-11 07:40:00,
2013-01-11 02:45:00,50.2,38.3,29.95,SW,225,0.0,0.7,54,0.00,,,0.00,fowsr,2013-01-11 07:45:00,
2013-01-11 02:50:00,50.2,38.3,29.94,South,180,0.0,0.7,54,0.00,,,0.00,fowsr,2013-01-11 07:50:00,
2013-01-11 02:55:00,50.0,38.1,29.95,West,270,0.0,0.0,54,0.00,,,0.00,fowsr,2013-01-11 07:55:00,
2013-01-11 03:00:00,50.0,37.7,29.94,SE,135,0.0,0.7,53,0.00,,,0.00,fowsr,2013-01-11 08:00:00,
2013-01-11 03:05:00,50.0,37.7,29.94,SE,135,0.0,0.7,53,0.00,,,0.00,fowsr,2013-01-11 08:05:00,
2013-01-11 03:10:00,50.0,37.0,29.94,NE,45,0.0,0.0,51,0.00,,,0.00,fowsr,2013-01-11 08:10:00,
2013-01-11 03:15:00,50.0,37.0,29.94,North,0,0.0,1.6,51,0.00,,,0.00,fowsr,2013-01-11 08:15:00,
2013-01-11 03:20:00,50.0,37.0,29.94,North,0,0.0,0.7,51,0.00,,,0.00,fowsr,2013-01-11 08:20:00,
2013-01-11 03:25:00,49.8,37.2,29.94,North,0,0.0,0.0,52,0.00,,,0.00,fowsr,2013-01-11 08:25:00,
2013-01-11 03:35:00,49.8,37.6,29.93,SE,135,0.0,0.0,53,0.00,,,0.00,fowsr,2013-01-11 08:35:00,
2013-01-11 03:40:00,49.5,37.9,29.93,NW,315,0.0,0.7,55,0.00,,,0.00,fowsr,2013-01-11 08:40:00,
2013-01-11 03:45:00,49.1,39.2,29.93,SE,135,0.0,1.6,60,0.00,,,0.00,fowsr,2013-01-11 08:45:00,
2013-01-11 03:50:00,48.6,38.7,29.93,SE,135,0.0,0.7,60,0.00,,,0.00,fowsr,2013-01-11 08:50:00,
2013-01-11 03:55:00,48.0,39.1,29.92,NW,315,0.0,0.0,63,0.00,,,0.00,fowsr,2013-01-11 08:55:00,
2013-01-11 04:00:00,47.5,38.9,29.91,NW,315,0.0,0.0,64,0.00,,,0.00,fowsr,2013-01-11 09:00:00,
2013-01-11 04:05:00,47.1,39.1,29.91,South,180,0.0,0.0,66,0.00,,,0.00,fowsr,2013-01-11 09:05:00,
2013-01-11 04:10:00,46.9,39.0,29.91,NW,315,0.0,0.0,66,0.00,,,0.00,fowsr,2013-01-11 09:10:00,
2013-01-11 04:15:00,46.8,39.1,29.91,SW,225,0.0,0.0,67,0.00,,,0.00,fowsr,2013-01-11 09:15:00,
2013-01-11 04:20:00,46.8,39.1,29.90,SE,135,0.0,0.7,67,0.00,,,0.00,fowsr,2013-01-11 09:20:00,
2013-01-11 04:25:00,46.8,39.1,29.90,NW,315,0.0,0.0,67,0.00,,,0.00,fowsr,2013-01-11 09:25:00,
2013-01-11 04:30:00,46.8,39.1,29.90,SE,135,0.0,0.7,67,0.00,,,0.00,fowsr,2013-01-11 09:30:00,
2013-01-11 04:35:00,46.9,39.0,29.91,SE,135,0.0,0.0,66,0.00,,,0.00,fowsr,2013-01-11 09:35:00,
2013-01-11 04:45:00,47.1,38.9,29.90,SE,135,0.0,0.0,65,0.00,,,0.00,fowsr,2013-01-11 09:45:00,
2013-01-11 04:50:00,47.1,38.9,29.90,SE,135,0.0,0.0,65,0.00,,,0.00,fowsr,2013-01-11 09:50:00,
2013-01-11 04:55:00,46.8,38.8,29.91,NW,315,0.0,0.7,66,0.00,,,0.00,fowsr,2013-01-11 09:55:00,
2013-01-11 05:00:00,46.4,38.7,29.90,NW,315,0.0,0.0,67,0.00,,,0.00,fowsr,2013-01-11 10:00:00,
2013-01-11 05:10:00,46.0,39.2,29.90,East,90,0.0,0.0,70,0.00,,,0.00,fowsr,2013-01-11 10:10:00,
2013-01-11 05:15:00,45.9,39.6,29.90,East,90,0.0,0.0,72,0.00,,,0.00,fowsr,2013-01-11 10:15:00,
2013-01-11 05:20:00,45.7,39.7,29.90,SE,135,0.0,0.7,73,0.00,,,0.00,fowsr,2013-01-11 10:20:00,
2013-01-11 05:25:00,45.5,39.5,29.90,SE,135,0.0,0.0,73,0.00,,,0.00,fowsr,2013-01-11 10:25:00,
2013-01-11 05:30:00,45.5,39.5,29.89,SE,135,0.0,0.0,73,0.00,,,0.00,fowsr,2013-01-11 10:30:00,
2013-01-11 05:35:00,45.3,39.1,29.89,South,180,0.0,0.0,72,0.00,,,0.00,fowsr,2013-01-11 10:35:00,
2013-01-11 05:40:00,45.3,39.1,29.90,South,180,0.0,0.0,72,0.00,,,0.00,fowsr,2013-01-11 10:40:00,
2013-01-11 05:45:00,45.3,39.1,29.90,SE,135,0.0,0.7,72,0.00,,,0.00,fowsr,2013-01-11 10:45:00,
2013-01-11 05:50:00,45.3,39.1,29.90,SE,135,0.0,0.0,72,0.01,,,0.01,fowsr,2013-01-11 10:50:00,
2013-01-11 05:55:00,45.0,39.2,29.90,SE,135,0.0,0.0,74,0.01,,,0.01,fowsr,2013-01-11 10:55:00,
2013-01-11 06:00:00,44.8,39.8,29.90,SW,225,0.0,0.0,77,0.01,,,0.01,fowsr,2013-01-11 11:00:00,
2013-01-11 06:10:00,44.2,40.0,29.91,SW,225,0.0,0.0,80,0.02,,,0.02,fowsr,2013-01-11 11:10:00,
2013-01-11 06:15:00,43.9,39.9,29.91,SW,225,0.0,0.0,81,0.02,,,0.02,fowsr,2013-01-11 11:15:00,
2013-01-11 06:20:00,43.9,39.9,29.91,SW,225,0.0,0.0,81,0.02,,,0.02,fowsr,2013-01-11 11:20:00,
2013-01-11 06:25:00,43.7,39.9,29.91,SW,225,0.0,0.0,82,0.04,,,0.04,fowsr,2013-01-11 11:25:00,
2013-01-11 06:30:00,43.5,40.0,29.91,SW,225,0.0,0.0,83,0.04,,,0.04,fowsr,2013-01-11 11:30:00,
2013-01-11 06:35:00,43.5,40.2,29.91,West,270,0.0,0.0,84,0.04,,,0.04,fowsr,2013-01-11 11:35:00,
2013-01-11 06:40:00,43.3,40.2,29.91,SW,225,0.0,0.7,85,0.04,,,0.04,fowsr,2013-01-11 11:40:00,
2013-01-11 06:50:00,43.2,40.5,29.92,SW,225,0.0,0.0,87,0.05,,,0.05,fowsr,2013-01-11 11:50:00,
2013-01-11 06:55:00,43.0,40.3,29.92,NW,315,0.0,0.0,87,0.07,,,0.08,fowsr,2013-01-11 11:55:00,
2013-01-11 07:05:00,43.0,40.5,29.92,NW,315,0.0,0.0,88,0.08,,,0.09,fowsr,2013-01-11 12:05:00,
2013-01-11 07:10:00,42.8,40.4,29.92,NW,315,0.0,0.0,88,0.09,,,0.12,fowsr,2013-01-11 12:10:00,
2013-01-11 07:15:00,42.8,40.6,29.92,NW,315,0.0,0.0,89,0.11,,,0.13,fowsr,2013-01-11 12:15:00,
2013-01-11 07:20:00,42.6,40.6,29.92,North,0,0.0,0.7,90,0.12,,,0.14,fowsr,2013-01-11 12:20:00,
2013-01-11 07:25:00,42.6,40.6,29.92,NW,315,0.0,0.0,90,0.12,,,0.15,fowsr,2013-01-11 12:25:00,
2013-01-11 07:30:00,42.4,40.4,29.92,NW,315,0.0,0.0,90,0.12,,,0.15,fowsr,2013-01-11 12:30:00,
2013-01-11 07:40:00,42.4,40.6,29.92,North,0,0.0,0.0,91,0.13,,,0.17,fowsr,2013-01-11 12:40:00,
2013-01-11 07:45:00,42.4,40.6,29.91,North,0,0.0,0.0,91,0.14,,,0.18,fowsr,2013-01-11 12:45:00,
2013-01-11 07:50:00,42.4,40.6,29.91,North,0,0.0,0.0,91,0.13,,,0.18,fowsr,2013-01-11 12:50:00,
2013-01-11 07:55:00,42.4,40.6,29.91,North,0,0.0,0.0,91,0.12,,,0.18,fowsr,2013-01-11 12:55:00,
2013-01-11 08:00:00,42.4,40.6,29.91,North,0,0.0,0.0,91,0.09,,,0.18,fowsr,2013-01-11 13:00:00,
2013-01-11 08:05:00,42.6,41.0,29.91,West,270,0.0,0.0,92,0.09,,,0.19,fowsr,2013-01-11 13:05:00,
2013-01-11 08:10:00,42.6,41.0,29.91,NW,315,0.0,0.0,92,0.09,,,0.19,fowsr,2013-01-11 13:10:00,
2013-01-11 08:15:00,42.4,40.9,29.91,NW,315,0.0,0.0,92,0.06,,,0.19,fowsr,2013-01-11 13:15:00,
2013-01-11 08:20:00,42.4,40.9,29.91,SW,225,0.0,0.7,92,0.05,,,0.19,fowsr,2013-01-11 13:20:00,
2013-01-11 08:25:00,42.4,40.9,29.92,NW,315,0.0,0.7,92,0.06,,,0.20,fowsr,2013-01-11 13:25:00,
2013-01-11 08:30:00,42.4,40.9,29.92,North,0,0.0,0.0,92,0.05,,,0.20,fowsr,2013-01-11 13:30:00,
2013-01-11 08:35:00,42.4,41.1,29.91,East,90,0.0,0.0,93,0.05,,,0.20,fowsr,2013-01-11 13:35:00,
2013-01-11 08:40:00,42.4,41.1,29.91,West,270,0.0,0.7,93,0.04,,,0.20,fowsr,2013-01-11 13:40:00,
2013-01-11 08:45:00,42.6,41.2,29.90,East,90,0.0,0.0,93,0.04,,,0.20,fowsr,2013-01-11 13:45:00,
2013-01-11 08:50:00,42.6,41.2,29.91,West,270,0.0,0.7,93,0.02,,,0.20,fowsr,2013-01-11 13:50:00,
2013-01-11 08:55:00,42.8,41.2,29.90,West,270,0.0,0.0,92,0.02,,,0.20,fowsr,2013-01-11 13:55:00,
2013-01-11 09:00:00,42.8,41.4,29.91,SE,135,0.0,0.7,93,0.02,,,0.20,fowsr,2013-01-11 14:00:00,
2013-01-11 09:05:00,42.8,41.4,29.91,SW,225,0.0,0.0,93,0.01,,,0.20,fowsr,2013-01-11 14:05:00,
2013-01-11 09:10:00,43.0,41.6,29.91,NW,315,0.0,0.0,93,0.01,,,0.20,fowsr,2013-01-11 14:10:00,
2013-01-11 09:15:00,43.2,41.8,29.91,NW,315,0.0,0.0,93,0.01,,,0.20,fowsr,2013-01-11 14:15:00,
2013-01-11 09:20:00,43.2,41.8,29.91,East,90,0.0,0.7,93,0.01,,,0.20,fowsr,2013-01-11 14:20:00,
2013-01-11 09:25:00,43.2,41.8,29.91,SW,225,0.0,0.7,93,0.00,,,0.20,fowsr,2013-01-11 14:25:00,
2013-01-11 09:30:00,43.2,41.8,29.91,NE,45,0.0,0.7,93,0.00,,,0.20,fowsr,2013-01-11 14:30:00,
2013-01-11 09:35:00,43.2,41.8,29.91,North,0,0.0,0.0,93,0.01,,,0.21,fowsr,2013-01-11 14:35:00,
2013-01-11 09:40:00,43.2,41.8,29.91,NW,315,0.0,0.0,93,0.01,,,0.21,fowsr,2013-01-11 14:40:00,
2013-01-11 09:45:00,43.2,41.8,29.91,NW,315,0.0,0.0,93,0.01,,,0.21,fowsr,2013-01-11 14:45:00,
2013-01-11 09:50:00,43.2,42.0,29.91,SE,135,0.0,0.7,94,0.02,,,0.22,fowsr,2013-01-11 14:50:00,
2013-01-11 09:55:00,43.3,42.2,29.90,West,270,0.0,0.7,94,0.02,,,0.22,fowsr,2013-01-11 14:55:00,
2013-01-11 10:00:00,43.5,42.3,29.90,SW,225,0.0,0.7,94,0.04,,,0.24,fowsr,2013-01-11 15:00:00,
2013-01-11 10:05:00,43.7,42.5,29.90,SW,225,0.0,0.7,94,0.04,,,0.24,fowsr,2013-01-11 15:05:00,
2013-01-11 10:10:00,43.7,42.5,29.89,East,90,0.0,0.0,94,0.04,,,0.24,fowsr,2013-01-11 15:10:00,
2013-01-11 10:20:00,44.2,43.3,29.89,NW,315,0.0,0.7,95,0.04,,,0.24,fowsr,2013-01-11 15:20:00,
2013-01-11 10:25:00,44.2,43.3,29.90,West,270,0.0,0.7,95,0.04,,,0.24,fowsr,2013-01-11 15:25:00,
2013-01-11 10:30:00,44.4,43.4,29.90,SW,225,0.0,0.0,95,0.04,,,0.24,fowsr,2013-01-11 15:30:00,
2013-01-11 10:35:00,44.6,43.4,29.90,West,270,0.0,0.0,94,0.04,,,0.24,fowsr,2013-01-11 15:35:00,
2013-01-11 10:40:00,44.6,43.4,29.90,West,270,0.0,0.0,94,0.02,,,0.24,fowsr,2013-01-11 15:40:00,
2013-01-11 10:45:00,44.6,43.4,29.90,ESE,112,0.0,0.7,94,0.02,,,0.24,fowsr,2013-01-11 15:45:00,
2013-01-11 10:50:00,44.8,43.6,29.90,SW,225,0.0,0.0,94,0.02,,,0.24,fowsr,2013-01-11 15:50:00,
2013-01-11 10:55:00,44.6,43.4,29.89,SW,225,0.0,0.0,94,0.01,,,0.24,fowsr,2013-01-11 15:55:00,
2013-01-11 11:00:00,44.8,43.6,29.88,SE,135,0.0,0.7,94,0.00,,,0.24,fowsr,2013-01-11 16:00:00,
2013-01-11 11:05:00,44.8,43.6,29.88,SE,135,0.0,0.0,94,0.00,,,0.24,fowsr,2013-01-11 16:05:00,
2013-01-11 11:10:00,44.8,43.6,29.86,South,180,0.0,0.0,94,0.00,,,0.24,fowsr,2013-01-11 16:10:00,
2013-01-11 11:15:00,45.0,44.0,29.86,SSE,157,0.0,0.0,95,0.00,,,0.24,fowsr,2013-01-11 16:15:00,
2013-01-11 11:20:00,45.3,44.3,29.86,SW,225,0.0,0.0,95,0.00,,,0.24,fowsr,2013-01-11 16:20:00,
2013-01-11 11:25:00,45.3,44.3,29.86,South,180,0.0,0.0,95,0.00,,,0.24,fowsr,2013-01-11 16:25:00,
2013-01-11 11:30:00,45.5,44.5,29.86,NW,315,0.0,0.0,95,0.00,,,0.24,fowsr,2013-01-11 16:30:00,
2013-01-11 11:35:00,45.7,44.7,29.85,West,270,0.0,0.0,95,0.00,,,0.24,fowsr,2013-01-11 16:35:00,
2013-01-11 11:40:00,45.7,44.7,29.84,South,180,0.0,0.0,95,0.00,,,0.24,fowsr,2013-01-11 16:40:00,
2013-01-11 11:45:00,45.9,44.9,29.85,NW,315,0.0,0.0,95,0.00,,,0.24,fowsr,2013-01-11 16:45:00,
2013-01-11 11:50:00,46.0,45.0,29.84,West,270,0.0,0.0,95,0.00,,,0.24,fowsr,2013-01-11 16:50:00,
2013-01-11 11:55:00,46.0,45.0,29.84,SW,225,0.0,0.0,95,0.00,,,0.24,fowsr,2013-01-11 16:55:00,
2013-01-11 12:05:00,46.2,45.4,29.83,West,270,0.0,0.0,96,0.00,,,0.24,fowsr,2013-01-11 17:05:00,
2013-01-11 12:10:00,46.2,45.4,29.83,NW,315,0.0,0.0,96,0.00,,,0.24,fowsr,2013-01-11 17:10:00,
2013-01-11 12:20:00,46.2,45.4,29.83,SW,225,0.0,0.0,96,0.00,,,0.24,fowsr,2013-01-11 17:20:00,
2013-01-11 12:25:00,46.4,45.4,29.83,SW,225,0.0,0.0,95,0.00,,,0.24,fowsr,2013-01-11 17:25:00,
2013-01-11 12:30:00,46.6,45.6,29.83,SW,225,0.0,0.7,95,0.00,,,0.24,fowsr,2013-01-11 17:30:00,
2013-01-11 12:40:00,46.6,45.6,29.82,SW,225,0.0,0.0,95,0.00,,,0.24,fowsr,2013-01-11 17:40:00,
2013-01-11 12:45:00,46.8,45.8,29.81,SE,135,0.0,0.0,95,0.00,,,0.24,fowsr,2013-01-11 17:45:00,
2013-01-11 12:50:00,46.8,45.8,29.81,SW,225,0.0,0.0,95,0.00,,,0.24,fowsr,2013-01-11 17:50:00,
2013-01-11 12:55:00,46.9,45.9,29.80,SW,225,0.0,0.0,95,0.00,,,0.24,fowsr,2013-01-11 17:55:00,
2013-01-11 13:00:00,46.9,45.9,29.80,East,90,0.0,0.7,95,0.00,,,0.24,fowsr,2013-01-11 18:00:00,
2013-01-11 13:05:00,47.1,46.1,29.79,SE,135,0.0,0.0,95,0.00,,,0.24,fowsr,2013-01-11 18:05:00,
2013-01-11 13:10:00,47.1,46.1,29.79,SE,135,0.0,0.7,95,0.00,,,0.24,fowsr,2013-01-11 18:10:00,
2013-01-11 13:20:00,47.5,46.5,29.79,SE,135,0.0,0.7,95,0.00,,,0.24,fowsr,2013-01-11 18:20:00,
2013-01-11 13:25:00,47.8,46.8,29.78,SE,135,0.0,0.0,95,0.00,,,0.24,fowsr,2013-01-11 18:25:00,
2013-01-11 13:30:00,48.2,47.0,29.78,SE,135,0.0,0.0,94,0.00,,,0.24,fowsr,2013-01-11 18:30:00,
2013-01-11 13:35:00,48.4,47.2,29.78,SE,135,0.0,0.0,94,0.00,,,0.24,fowsr,2013-01-11 18:35:00,
2013-01-11 13:40:00,48.6,47.3,29.78,West,270,0.0,0.7,94,0.00,,,0.24,fowsr,2013-01-11 18:40:00,
2013-01-11 13:45:00,48.7,47.5,29.77,SE,135,0.0,0.0,94,0.00,,,0.24,fowsr,2013-01-11 18:45:00,
2013-01-11 13:50:00,48.9,47.7,29.78,West,270,0.0,0.0,94,0.00,,,0.24,fowsr,2013-01-11 18:50:00,
2013-01-11 13:55:00,49.1,48.1,29.77,West,270,0.0,0.7,95,0.00,,,0.24,fowsr,2013-01-11 18:55:00,
2013-01-11 14:00:00,49.1,48.1,29.77,West,270,0.0,0.0,95,0.00,,,0.24,fowsr,2013-01-11 19:00:00,
2013-01-11 14:05:00,49.3,48.3,29.77,West,270,0.0,0.0,95,0.00,,,0.24,fowsr,2013-01-11 19:05:00,
2013-01-11 14:15:00,49.6,48.6,29.77,NW,315,0.0,0.7,95,0.00,,,0.24,fowsr,2013-01-11 19:15:00,
2013-01-11 14:20:00,49.8,48.8,29.77,NW,315,0.0,0.0,95,0.00,,,0.24,fowsr,2013-01-11 19:20:00,
2013-01-11 14:25:00,50.0,48.8,29.77,NW,315,0.0,0.0,94,0.00,,,0.24,fowsr,2013-01-11 19:25:00,
2013-01-11 14:30:00,50.0,48.8,29.77,West,270,0.0,0.7,94,0.00,,,0.24,fowsr,2013-01-11 19:30:00,
2013-01-11 14:35:00,50.2,48.9,29.76,West,270,0.0,0.0,94,0.00,,,0.24,fowsr,2013-01-11 19:35:00,
2013-01-11 14:40:00,50.2,48.9,29.77,West,270,0.0,0.0,94,0.00,,,0.24,fowsr,2013-01-11 19:40:00,
2013-01-11 14:45:00,50.2,48.9,29.76,NW,315,0.0,0.0,94,0.00,,,0.24,fowsr,2013-01-11 19:45:00,
2013-01-11 14:50:00,50.2,48.9,29.77,West,270,0.0,0.0,94,0.00,,,0.24,fowsr,2013-01-11 19:50:00,
2013-01-11 14:55:00,50.2,48.9,29.76,NW,315,0.0,0.0,94,0.00,,,0.24,fowsr,2013-01-11 19:55:00,
2013-01-11 15:00:00,50.2,48.7,29.76,NW,315,0.0,0.0,93,0.00,,,0.24,fowsr,2013-01-11 20:00:00,
2013-01-11 15:05:00,50.2,48.7,29.77,NW,315,0.0,0.7,93,0.00,,,0.24,fowsr,2013-01-11 20:05:00,
2013-01-11 15:10:00,50.2,48.7,29.76,West,270,0.0,0.7,93,0.00,,,0.24,fowsr,2013-01-11 20:10:00,
2013-01-11 15:15:00,50.0,48.5,29.76,SE,135,0.0,0.7,93,0.00,,,0.24,fowsr,2013-01-11 20:15:00,
2013-01-11 15:20:00,50.0,48.5,29.76,SW,225,0.0,0.7,93,0.00,,,0.24,fowsr,2013-01-11 20:20:00,
2013-01-11 15:25:00,50.0,48.5,29.76,SW,225,0.0,0.0,93,0.00,,,0.24,fowsr,2013-01-11 20:25:00,
2013-01-11 15:30:00,50.0,48.5,29.75,East,90,0.0,0.7,93,0.00,,,0.24,fowsr,2013-01-11 20:30:00,
2013-01-11 15:35:00,50.0,48.5,29.75,SE,135,0.7,1.6,93,0.00,,,0.24,fowsr,2013-01-11 20:35:00,
2013-01-11 15:40:00,50.0,48.5,29.75,NW,315,0.0,0.7,93,0.00,,,0.24,fowsr,2013-01-11 20:40:00,
2013-01-11 15:45:00,50.0,48.8,29.75,West,270,0.0,0.0,94,0.00,,,0.24,fowsr,2013-01-11 20:45:00,
2013-01-11 15:50:00,50.2,48.9,29.75,East,90,0.0,0.0,94,0.00,,,0.24,fowsr,2013-01-11 20:50:00,
2013-01-11 15:55:00,50.2,48.9,29.75,East,90,0.0,0.0,94,0.00,,,0.24,fowsr,2013-01-11 20:55:00,
2013-01-11 16:00:00,50.2,48.9,29.75,NW,315,0.0,0.0,94,0.00,,,0.24,fowsr,2013-01-11 21:00:00,
2013-01-11 16:05:00,50.2,48.9,29.75,NW,315,0.0,0.0,94,0.00,,,0.24,fowsr,2013-01-11 21:05:00,
2013-01-11 16:10:00,50.2,48.9,29.75,NW,315,0.0,0.0,94,0.00,,,0.24,fowsr,2013-01-11 21:10:00,
2013-01-11 16:15:00,50.4,49.1,29.75,West,270,0.0,0.7,94,0.00,,,0.24,fowsr,2013-01-11 21:15:00,
2013-01-11 16:20:00,50.2,48.9,29.75,West,270,0.0,0.7,94,0.00,,,0.24,fowsr,2013-01-11 21:20:00,
2013-01-11 16:25:00,50.2,48.9,29.74,SE,135,0.0,0.0,94,0.00,,,0.24,fowsr,2013-01-11 21:25:00,
2013-01-11 16:35:00,50.2,49.1,29.74,SE,135,0.0,0.0,95,0.00,,,0.24,fowsr,2013-01-11 21:35:00,
2013-01-11 16:40:00,50.4,49.3,29.74,West,270,0.0,0.0,95,0.00,,,0.24,fowsr,2013-01-11 21:40:00,
2013-01-11 16:45:00,50.4,49.3,29.74,NW,315,0.0,0.0,95,0.00,,,0.24,fowsr,2013-01-11 21:45:00,
2013-01-11 16:55:00,50.4,49.3,29.74,NW,315,0.0,0.0,95,0.00,,,0.24,fowsr,2013-01-11 21:55:00,
2013-01-11 17:00:00,50.4,49.3,29.74,NW,315,0.0,0.0,95,0.00,,,0.24,fowsr,2013-01-11 22:00:00,
2013-01-11 17:05:00,50.4,49.3,29.74,NW,315,0.0,0.7,95,0.00,,,0.24,fowsr,2013-01-11 22:05:00,
2013-01-11 17:10:00,50.2,49.1,29.75,NW,315,0.0,0.0,95,0.00,,,0.24,fowsr,2013-01-11 22:10:00,
2013-01-11 17:15:00,50.2,49.1,29.75,West,270,0.0,0.7,95,0.00,,,0.24,fowsr,2013-01-11 22:15:00,
2013-01-11 17:20:00,50.0,49.0,29.75,NW,315,0.0,0.0,95,0.00,,,0.24,fowsr,2013-01-11 22:20:00,
2013-01-11 17:30:00,49.5,48.6,29.75,NW,315,0.0,0.0,96,0.00,,,0.24,fowsr,2013-01-11 22:30:00,
2013-01-11 17:40:00,49.1,48.3,29.74,South,180,0.0,0.0,96,0.00,,,0.24,fowsr,2013-01-11 22:40:00,
2013-01-11 17:45:00,48.9,48.1,29.73,East,90,0.0,0.0,96,0.00,,,0.24,fowsr,2013-01-11 22:45:00,
2013-01-11 17:50:00,48.7,47.9,29.73,East,90,0.0,0.0,96,0.00,,,0.24,fowsr,2013-01-11 22:50:00,
2013-01-11 18:00:00,48.7,47.9,29.75,West,270,0.0,0.0,96,0.00,,,0.24,fowsr,2013-01-11 23:00:00,
2013-01-11 18:05:00,48.7,47.9,29.75,West,270,0.0,0.0,96,0.00,,,0.24,fowsr,2013-01-11 23:05:00,
2013-01-11 18:10:00,48.6,47.7,29.75,NW,315,0.0,1.6,96,0.00,,,0.24,fowsr,2013-01-11 23:10:00,
2013-01-11 18:15:00,48.4,47.6,29.75,SW,225,0.0,0.7,96,0.00,,,0.24,fowsr,2013-01-11 23:15:00,
2013-01-11 18:25:00,48.4,47.6,29.75,West,270,0.0,0.0,96,0.00,,,0.24,fowsr,2013-01-11 23:25:00,
2013-01-11 18:30:00,48.4,47.6,29.75,West,270,0.0,0.0,96,0.00,,,0.24,fowsr,2013-01-11 23:30:00,
2013-01-11 18:35:00,48.4,47.6,29.75,West,270,0.0,0.0,96,0.00,,,0.24,fowsr,2013-01-11 23:35:00,
2013-01-11 18:40:00,48.4,47.6,29.75,West,270,0.0,0.0,96,0.00,,,0.24,fowsr,2013-01-11 23:40:00,
2013-01-11 18:45:00,48.4,47.6,29.75,West,270,0.0,0.0,96,0.00,,,0.24,fowsr,2013-01-11 23:45:00,
2013-01-11 18:50:00,48.4,47.6,29.74,SE,135,0.0,0.0,96,0.00,,,0.24,fowsr,2013-01-11 23:50:00,
2013-01-11 18:55:00,48.6,47.7,29.74,SE,135,0.0,0.0,96,0.00,,,0.24,fowsr,2013-01-11 23:55:00,
2013-01-11 19:00:00,48.6,47.7,29.74,SE,135,0.0,0.0,96,0.00,,,0.24,fowsr,2013-01-12 00:00:00,
2013-01-11 19:05:00,48.6,47.7,29.74,SE,135,0.0,0.0,96,0.00,,,0.24,fowsr,2013-01-12 00:05:00,
2013-01-11 19:10:00,48.6,48.0,29.74,SE,135,0.0,0.0,97,0.00,,,0.24,fowsr,2013-01-12 00:10:00,
2013-01-11 19:15:00,48.6,48.0,29.74,SE,135,0.0,0.0,97,0.00,,,0.24,fowsr,2013-01-12 00:15:00,
2013-01-11 19:20:00,48.7,48.1,29.74,SE,135,0.0,0.0,97,0.00,,,0.24,fowsr,2013-01-12 00:20:00,
2013-01-11 19:25:00,48.7,48.1,29.74,SE,135,0.0,0.0,97,0.00,,,0.24,fowsr,2013-01-12 00:25:00,
2013-01-11 19:35:00,48.7,48.1,29.74,SE,135,0.0,0.0,97,0.00,,,0.24,fowsr,2013-01-12 00:35:00,
2013-01-11 19:40:00,48.7,48.1,29.74,SE,135,0.0,0.0,97,0.00,,,0.24,fowsr,2013-01-12 00:40:00,
2013-01-11 19:50:00,48.9,48.3,29.73,SE,135,0.0,0.0,97,0.00,,,0.24,fowsr,2013-01-12 00:50:00,
2013-01-11 19:55:00,49.1,48.5,29.73,SE,135,0.0,0.0,97,0.00,,,0.24,fowsr,2013-01-12 00:55:00,
2013-01-11 20:05:00,49.1,48.5,29.73,SE,135,0.0,0.0,97,0.00,,,0.24,fowsr,2013-01-12 01:05:00,
2013-01-11 20:10:00,49.1,48.5,29.73,SE,135,0.0,0.0,97,0.00,,,0.24,fowsr,2013-01-12 01:10:00,
2013-01-11 20:15:00,49.3,48.7,29.73,SE,135,0.0,0.0,97,0.00,,,0.24,fowsr,2013-01-12 01:15:00,
2013-01-11 20:20:00,49.3,48.7,29.73,SE,135,0.0,0.0,97,0.00,,,0.24,fowsr,2013-01-12 01:20:00,
2013-01-11 20:25:00,49.3,48.7,29.73,SE,135,0.0,0.0,97,0.00,,,0.24,fowsr,2013-01-12 01:25:00,
2013-01-11 20:35:00,49.3,48.7,29.73,SE,135,0.0,0.0,97,0.00,,,0.24,fowsr,2013-01-12 01:35:00,
2013-01-11 20:40:00,49.3,48.7,29.73,SE,135,0.0,0.0,97,0.00,,,0.24,fowsr,2013-01-12 01:40:00,
2013-01-11 20:45:00,49.3,48.9,29.73,SE,135,0.0,0.0,98,0.00,,,0.24,fowsr,2013-01-12 01:45:00,
2013-01-11 20:50:00,49.3,48.9,29.73,NW,315,0.0,0.0,98,0.00,,,0.24,fowsr,2013-01-12 01:50:00,
2013-01-11 20:55:00,49.1,48.7,29.74,NW,315,0.0,0.0,98,0.00,,,0.24,fowsr,2013-01-12 01:55:00,
2013-01-11 21:00:00,49.1,48.7,29.74,SE,135,0.0,0.0,98,0.00,,,0.24,fowsr,2013-01-12 02:00:00,
2013-01-11 21:05:00,49.1,48.7,29.74,SE,135,0.0,0.0,98,0.00,,,0.24,fowsr,2013-01-12 02:05:00,
2013-01-11 21:10:00,49.1,48.7,29.74,West,270,0.0,0.0,98,0.00,,,0.24,fowsr,2013-01-12 02:10:00,
2013-01-11 21:15:00,49.1,48.7,29.74,West,270,0.0,0.0,98,0.00,,,0.24,fowsr,2013-01-12 02:15:00,
2013-01-11 21:20:00,49.1,48.7,29.73,West,270,0.0,0.0,98,0.00,,,0.24,fowsr,2013-01-12 02:20:00,
2013-01-11 21:25:00,49.1,48.7,29.74,NW,315,0.0,0.0,98,0.00,,,0.24,fowsr,2013-01-12 02:25:00,
2013-01-11 21:30:00,49.1,48.7,29.74,NW,315,0.0,0.0,98,0.00,,,0.24,fowsr,2013-01-12 02:30:00,
2013-01-11 21:40:00,49.1,48.7,29.73,NW,315,0.0,0.0,98,0.00,,,0.24,fowsr,2013-01-12 02:40:00,
2013-01-11 21:45:00,49.3,48.9,29.73,SE,135,0.0,0.0,98,0.00,,,0.24,fowsr,2013-01-12 02:45:00,
2013-01-11 21:50:00,49.3,48.9,29.73,SE,135,0.0,0.0,98,0.00,,,0.24,fowsr,2013-01-12 02:50:00,
2013-01-11 21:55:00,49.3,48.9,29.73,SE,135,0.0,0.0,98,0.00,,,0.24,fowsr,2013-01-12 02:55:00,
2013-01-11 22:00:00,49.3,48.9,29.73,SE,135,0.0,0.0,98,0.00,,,0.24,fowsr,2013-01-12 03:00:00,
2013-01-11 22:10:00,49.3,48.9,29.73,SE,135,0.0,0.0,98,0.00,,,0.24,fowsr,2013-01-12 03:10:00,
2013-01-11 22:15:00,49.3,48.9,29.72,SE,135,0.0,0.0,98,0.00,,,0.24,fowsr,2013-01-12 03:15:00,
2013-01-11 22:25:00,49.3,48.9,29.72,SE,135,0.0,0.0,98,0.00,,,0.24,fowsr,2013-01-12 03:25:00,
2013-01-11 22:30:00,49.3,48.9,29.72,SE,135,0.0,0.0,98,0.00,,,0.24,fowsr,2013-01-12 03:30:00,
2013-01-11 22:40:00,49.3,48.9,29.72,NW,315,0.0,0.0,98,0.00,,,0.24,fowsr,2013-01-12 03:40:00,
2013-01-11 22:45:00,49.3,48.9,29.72,East,90,0.0,0.0,98,0.00,,,0.24,fowsr,2013-01-12 03:45:00,
2013-01-11 22:55:00,49.3,48.9,29.72,East,90,0.0,0.0,98,0.00,,,0.24,fowsr,2013-01-12 03:55:00,
2013-01-11 23:00:00,49.3,48.9,29.71,East,90,0.0,0.0,98,0.00,,,0.24,fowsr,2013-01-12 04:00:00,
2013-01-11 23:05:00,49.3,48.9,29.71,East,90,0.0,0.0,98,0.00,,,0.24,fowsr,2013-01-12 04:05:00,
2013-01-11 23:10:00,49.3,48.9,29.72,East,90,0.0,0.0,98,0.00,,,0.24,fowsr,2013-01-12 04:10:00,
2013-01-11 23:15:00,49.3,48.9,29.71,East,90,0.0,0.0,98,0.00,,,0.24,fowsr,2013-01-12 04:15:00,
2013-01-11 23:20:00,49.3,48.9,29.72,East,90,0.0,0.0,98,0.00,,,0.24,fowsr,2013-01-12 04:20:00,
2013-01-11 23:25:00,49.3,48.9,29.71,East,90,0.0,0.0,98,0.00,,,0.24,fowsr,2013-01-12 04:25:00,
2013-01-11 23:30:00,49.3,48.9,29.71,East,90,0.0,0.7,98,0.00,,,0.24,fowsr,2013-01-12 04:30:00,
2013-01-11 23:35:00,49.3,48.9,29.71,East,90,0.0,0.7,98,0.00,,,0.24,fowsr,2013-01-12 04:35:00,
2013-01-11 23:40:00,49.3,48.9,29.71,East,90,0.0,0.0,98,0.00,,,0.24,fowsr,2013-01-12 04:40:00,
2013-01-11 23:45:00,49.3,48.9,29.71,East,90,0.0,0.0,98,0.00,,,0.24,fowsr,2013-01-12 04:45:00,
2013-01-11 23:55:00,49.5,49.3,29.71,East,90,0.0,0.0,99,0.00,,,0.24,fowsr,2013-01-12 04:55:00,